Regional Weather Roundup
Issued by NWS Albany, NY

Home | Current Version | Previous Version | Graphics & Text | Print | Product List | Glossary Off
Versions: 1 2 3 4 5 6 7 8 9 10 11 12 13 14 15 16 17 18 19 20 21 22 23 24 25 26 27 28

000
ASUS41 KALY 162310
RWRALY

NEW YORK STATE HOURLY WEATHER ROUNDUP
NATIONAL WEATHER SERVICE ALBANY NY
700 PM EDT WED AUG 16 2017

NOTE: "FAIR" INDICATES FEW OR NO CLOUDS BELOW 12,000 FEET WITH NO
SIGNIFICANT WEATHER AND/OR NO OBSTRUCTIONS TO VISIBILITY.

NYZ032-033-038>043-046>054-057>066-NYZ062>081-082-084-170000-
EAST


CITY           SKY/WX    TMP DP  RH WIND       PRES   REMARKS
ALBANY         CLOUDY    77  52  41 W13       29.97R
GLENS FALLS    PTCLDY    71  53  52 NE7       29.99R
POUGHKEEPSIE   CLEAR     80  60  50 N3        29.96R
NEWBURGH       PTCLDY    81  64  57 VRB5      29.99S
MONTGOMERY     MOCLDY    76  68  76 CALM      29.97R
WHITE PLAINS   PTCLDY    81  61  50 N3        29.97R
ISLIP          PTCLDY    83  61  47 NW6       29.96R
NEW YORK CITY  PTCLDY    84  62  47 NW5       29.95R
CENTRAL PARK   CLEAR     82  61  48 CALM      29.99R
$$

NYZ005>009-017-018-044>046-055-056-170000-
CENTRAL


CITY           SKY/WX    TMP DP  RH WIND       PRES   REMARKS
FULTON         SUNNY     71  51  49 N3        30.06F
SYRACUSE       MOSUNNY   70  49  47 NW8       30.05S
ROME           SUNNY     72  52  49 VRB5      30.04R
ELMIRA         SUNNY     76  60  57 N6        30.04S
BINGHAMTON     SUNNY     71  57  61 N9        30.06S
MONTICELLO     CLEAR     74  59  59 NW7       30.04S
$$

NYZ026>034-041>043-087-170000-
NORTH


CITY           SKY/WX    TMP DP  RH WIND       PRES   REMARKS
WATERTOWN      MOSUNNY   71  53  52 N5        30.05S
FORT DRUM      NOT AVBL
OGDENSBURG     FAIR      72  50  45 N3        30.04S
MASSENA        SUNNY     71  51  49 W6        30.04S
SARANAC LAKE   CLEAR     64  47  53 VRB3      30.06R
PLATTSBURGH    CLEAR     70  46  42 NW3       30.01R
$$

NYZ001>004-010>016-019>021-085-170000-
WEST


CITY           SKY/WX    TMP DP  RH WIND       PRES   REMARKS
NIAGARA FALLS  SUNNY     77  60  55 NE6       30.04F
BUFFALO        MOSUNNY   75  60  59 NE7       30.05F
DUNKIRK        SUNNY     75  62  64 NE6       30.04F
JAMESTOWN      SUNNY     73  54  49 N5        30.08F
WELLSVILLE     SUNNY     75  55  49 N5        30.10F
ROCHESTER      MOSUNNY   72  54  53 NE7       30.07S
PENN YAN       MOSUNNY   71  58  63 VRB3      30.08R
$$

             KEY
       WCI = WIND CHILL INDEX
       VSB = VISIBILITY
       HX  = HEAT INDEX
$$




USA.gov is the U.S. government's official web portal to all federal, state and local government web resources and services.